Погода в Свинце

Россия / Курская область     51°26′42″N   37°01′31″E
темп.,
°C
ветер,
м/с
пор.,
м/с
влажн.,
%
обл.,
%
осадки,
мм/ч
давл.,
гПа
погр.,
м
28 июля, ср
ср2800:00+20зюз22505 0.0 101912
03:00+19ююз1152100 0.0 101811
06:00+19ю3355100 0.0 101742
09:00+23ю3651100 0.0 1017250
12:00+26ю4644100 0.0 1016749
15:00+28ю2537100 0.0 10141446
18:00+21св366199 0.0 1013129
21:00+18ююв269094 1.0 1013138
29 июля, чт
чт2900:00+18з369182 0.4 1012116
03:00+17з23930 0.4 101247
06:00+18зсз249198 0.0 1011103
09:00+23з357111 0.0 1011440
12:00+28з464730 0.0 10101756
15:00+28зсз574363 0.0 1010836
18:00+29зсз35420 0.0 1008774
21:00+24в225432 0.0 100811
30 июля, пт
пт3000:00+22ю376185 0.0 1009121
03:00+20ююз35651 0.0 100784
06:00+20юз49741 0.0 1008186
09:00+25зюз566253 0.0 1008667
12:00+29зюз455237 0.0 10071358
15:00+29зсз7753100 0.2 10071507
18:00+26сз67574 0.0 10071181
21:00+22сз33730 0.0 100846
31 июля, сб
сб3100:00+20сз33740 0.0 100940
03:00+18сз22770 0.0 101018
06:00+18зсз22764 0.0 101028
09:00+24зсз23520 0.0 1011542
12:00+29зсз35355 0.0 10102143
15:00+30зсз55337 0.0 10102416
18:00+28сз56391 0.0 1010884
21:00+23ссз115064 0.0 101011
1 августа, вс
вс100:00+21ююв335674 0.0 101127
03:00+20ю34600 0.0 101161
06:00+20ю39600 0.0 1010163
09:00+26ю68450 0.0 1010572
12:00+31юз673054 0.0 10092595
15:00+32зюз6727100 0.0 10092806
18:00+29сз5745100 0.0 1009579
21:00+24ссв22630 0.0 100918